Regional Weather Roundup
Issued by NWS

Home | Current Version | Previous Version | Graphics & Text | Print | Product List | Glossary On
Versions: 1 2 3 4 5 6 7 8 9 10 11 12 13 14 15 16 17 18 19 20 21 22 23 24 25 26 27 28 29 30 31 32 33 34 35 36 37 38 39 40 41 42 43 44 45 46 47 48 49 50
708
ASUS43 KMPX 230010
RWRMN
WEATHER ROUNDUP FOR MINNESOTA
NATIONAL WEATHER SERVICE TWIN CITIES/CHANHASSEN MN
700 PM CDT SUN OCT 22 2017


NOTE: "FAIR" INDICATES FEW OR NO CLOUDS BELOW 12,000 FEET WITH NO
SIGNIFICANT WEATHER AND/OR OBSTRUCTIONS TO VISIBILITY. N/A MEANS
CURRENT SKY AND/OR WEATHER CONDITIONS ARE NOT AVAILABLE.

MNZ060>063-068>070-230100-
   Twin Cities Metro

CITY           SKY/WX    TMP DP  RH WIND       PRES   REMARKS
TWIN CITIES    PTCLDY    57  34  41 S6        29.94R
6HR MIN TEMP:  57; 6HR MAX TEMP:  64;

ST PAUL        CLEAR     52  37  56 S6        29.94S
CRYSTAL        CLEAR     52  33  48 S5        29.92R
BLAINE         CLEAR     52  36  54 S5        29.92S
LAKEVILLE      CLEAR     48  36  61 S3        29.95S
EDEN PRAIRIE   CLEAR     56  33  42 S8        29.92S
6HR MIN TEMP:  56; 6HR MAX TEMP:  64;

SOUTH ST PAUL  CLEAR     56  33  42 S3        29.94S
LAKE ELMO      FAIR      54  34  47 SE5       29.95S
$$
MNZ001>005-007-008-013>017-022>024-027-028-230100-
   Northwest Minnesota

CITY           SKY/WX    TMP DP  RH WIND       PRES   REMARKS
BEMIDJI        CLOUDY    56  28  33 S7        29.76S
HALLOCK        CLOUDY    59  30  33 SW16G23   29.62F
ROSEAU         CLOUDY    57  36  44 W17G24    29.66S
WARROAD        MOCLDY    57  32  38 SW10G21   29.66S
THIEF RVR FALL CLOUDY    60  29  30 SW15      29.68F
CROOKSTON      CLOUDY    61  28  29 S15       29.68F
FOSSTON        CLOUDY    55  28  35 S16G28    29.73F
DETROIT LAKES  CLOUDY    59  30  33 SW17G31   29.78F
MOORHEAD       PTCLDY    61  28  29 S10       29.73F
PARK RAPIDS    MOCLDY    55  32  41 S9        29.79S
MAHNOMEN       MOCLDY    56  32  38 S12       29.73F
$$
MNZ006-009>011-018-025>026-230100-
   North Central Minnesota

CITY           SKY/WX    TMP DP  RH WIND       PRES   REMARKS
BAUDETTE       CLOUDY    56  29  35 S12       29.68F
FLAG ISLAND    CLOUDY    55  30  38 SW15      29.63S
INTL FALLS     MOCLDY    50  30  46 S6        29.73F
6HR MIN TEMP:  50; 6HR MAX TEMP:  59;

WASKISH        CLOUDY    55  30  38 S6        29.73S
BIG FORK       PTCLDY    52  30  43 S5        29.79R
LONGVILLE      PTCLDY    54  30  40 S7        29.81S
GRAND RAPIDS   PTCLDY    50  30  46 S8        29.84S
CRANE LAKE     CLEAR     41  34  75 CALM      29.81R
ORR            PTCLDY    48  27  43 S5        29.77S
COOK           CLEAR     52  30  43 S5        29.82R
WALKER         MOCLDY    56  30  36 S8        29.78S
$$
MNZ012-019>021-037-230100-
   Northeast Minnesota

CITY           SKY/WX    TMP DP  RH WIND       PRES   REMARKS
DULUTH         PTCLDY    50  31  48 SW7       29.87R
6HR MIN TEMP:  50; 6HR MAX TEMP:  59;

ELY            CLEAR     50  28  43 S3        29.83S
HIBBING        CLEAR     47  29  49 S3        29.83R
EVELETH        CLEAR     45  23  42 S3        29.85S
DULUTH HARBOR  CLEAR     57  36  44 S9        29.88R
TWO HARBORS    CLEAR     52  34  50 CALM      29.85S
SILVER BAY     CLEAR     45  34  65 CALM      29.86R
G MARAIS ARPRT CLEAR     43  34  70 SW3       29.87R
$$
MNZ029>031-032-039>041-046>048-054>057-064-230100-
   West Central Minnesota

CITY           SKY/WX    TMP DP  RH WIND       PRES   REMARKS
FERGUS FALLS   CLOUDY    59  32  36 S12       29.80S
WHEATON        CLOUDY    61  28  29 S7        29.81S
MORRIS         MOCLDY    55  37  50 S7        29.82S
ALEXANDRIA     PTCLDY    55  35  47 S8        29.84S
ELBOW LAKE     MOCLDY    55  35  46 S7        29.81F
WADENA         MOCLDY    54  36  50 S6        29.81S
GLENWOOD       PTCLDY    52  36  54 S7        29.85S
APPLETON       PTCLDY    61  28  29 S6        29.83S
BENSON         CLEAR     55  30  38 SW7       29.85S
ORTONVILLE     MOCLDY    61  30  31 N6        29.82S
MADISON        PTCLDY    61  32  33 S6        29.84S
WILLMAR        FAIR      55  36  47 S3        29.88S
$$
MNZ033>034-036-042>043-049>051-058-059-230100-
   Central Minnesota

CITY           SKY/WX    TMP DP  RH WIND       PRES   REMARKS
ST CLOUD       MOCLDY    52  37  56 S8        29.88S
6HR MIN TEMP:  52; 6HR MAX TEMP:  62;

SAUK CENTRE    FAIR      51  36  57 SE7       29.85S
PAYNESVILLE    CLOUDY    57  35  44 S7        29.88S
AITKIN         PTCLDY    48  30  49 S6        29.84S
PINE RIVER     MOCLDY    50  34  53 S3        29.85F
BRAINERD       PTCLDY    53  33  46 S8        29.85S
STAPLES        MOCLDY    52  32  46 S7        29.83R
LONG PRAIRIE   FAIR      52  34  50 SE7       29.85S
LITTLE FALLS   PTCLDY    52  27  37 SE6       29.86S
LITCHFIELD     CLOUDY    57  36  44 CALM      29.90S
BUFFALO        PTCLDY    55  32  41 SE3       29.91S
MAPLE LAKE     MOCLDY    56  36  47 CALM      29.91S
HUTCHINSON     CLOUDY    54  38  54 S3        29.92S
$$
MNZ037-044-045-052-053-230100-
   East Central Minnesota

CITY           SKY/WX    TMP DP  RH WIND       PRES   REMARKS
PRINCETON      MOCLDY    54  36  50 SE5       29.90S
MORA           PTCLDY    54  32  43 S5        29.91S
CAMBRIDGE      CLEAR     55  37  50 SE3       29.91S
RUSH CITY      CLOUDY    50  32  50 S5        29.91S
MOOSE LAKE     PTCLDY    46  32  57 CALM      29.86S
HINCKLEY       FAIR      50  32  50 S5        29.90S
CLOQUET        CLEAR     52  27  37 S5        29.88R
MCGREGOR       PTCLDY    52  34  50 S5        29.86S
$$
MNZ071>073-080-081-089-090-097-098-230100-
   Southwest Minnesota

CITY           SKY/WX    TMP DP  RH WIND       PRES   REMARKS
MONTEVIDEO     PTCLDY    57  30  35 SW6       29.86R
GRANITE FALLS  PTCLDY    56  35  46 S7        29.88S
CANBY          CLOUDY    62  32  33 S6        29.86S
MARSHALL       CLEAR     57  33  40 S8        29.88R
REDWOOD FALLS  PTCLDY    56  33  42 S10       29.88F
OLIVIA         PTCLDY    55  34  44 S7        29.88S
PIPESTONE      CLEAR     54  28  37 SW6       29.89R
WORTHINGTON    CLEAR     56  31  38 S8        29.92F
JACKSON        CLEAR     55  30  38 S8        29.94F
TRACY          CLEAR     58  33  38 S8        29.89S
SLAYTON        CLEAR     55  30  39 S8        29.91S
$$
MNZ065>067-074>077-082>085-091>093-230100-
   South Central Minnesota

CITY           SKY/WX    TMP DP  RH WIND       PRES   REMARKS
MANKATO        CLEAR     57  32  38 S7        29.95S
NEW ULM        PTCLDY    54  34  47 S7        29.92F
ST JAMES       CLOUDY    55  36  47 SE8       29.94F
FAIRMONT       CLEAR     51  34  52 S9        29.95F
GLENCOE        PTCLDY    57  34  42 S5        29.91F
FARIBAULT      CLEAR     55  34  44 S3        29.96S
OWATONNA       CLEAR     54  36  50 S7        29.97S
WASECA         CLEAR     52  36  54 S7        29.97S
$$
MNZ078>079-086>088-094>096-230100-
   Southeast Minnesota

CITY           SKY/WX    TMP DP  RH WIND       PRES   REMARKS
ROCHESTER      CLEAR     50  37  61 S6        30.00R
6HR MIN TEMP:  50; 6HR MAX TEMP:  61;

RED WING       CLEAR     48  37  66 CALM      29.96R
STANTON        CLEAR     51  36  55 S3        29.95S
DODGE CENTER   CLEAR     48  34  57 S5        29.98S
WINONA         CLOUDY    54  45  71 SE7       30.00R
AUSTIN         CLEAR     55  30  38 S3        29.99S
PRESTON        CLOUDY    54  31  42 S3        30.01S
$$
ABBREVIATIONS USED IN REMARKS
   TC - TEMPERATURES IN CELSIUS
  WCI - WIND CHILL INDEX
   HX - HEAT INDEX
  VSB - VISIBILITY
$$




USA.gov is the U.S. government's official web portal to all federal, state and local government web resources and services.